Location: Oshawa
(43.9000°N, 78.8670°W)
Time: 11:25:20
(UTC-04:00)

Transit 2A Rocket - Visible Passes

Search period start: 22 October 2014 00:00
Search period end: 01 November 2014 00:00
Orbit: 591 x 917 km, 66.7° (Epoch: 22 October)

Date Brightness Start Highest point End Pass type
(mag) Time Alt. Az. Time Alt. Az. Time Alt. Az.
22 Oct 4.7 19:00:27 10° SSW 19:04:47 84° WNW 19:09:28 10° NNE visible
22 Oct 7.4 20:45:45 10° WNW 20:48:15 15° NW 20:50:52 10° N visible
23 Oct 6.9 20:02:40 10° W 20:06:06 21° NW 20:09:44 10° N visible
24 Oct 6.2 19:20:05 10° WSW 19:24:04 33° NW 19:28:21 10° NNE visible
25 Oct 7.5 20:24:39 10° NW 20:26:00 11° NNW 20:27:22 10° NNW visible
26 Oct 7.2 19:40:55 10° WNW 19:43:44 16° NW 19:46:42 10° N visible
27 Oct 6.7 18:57:59 10° W 19:01:36 24° NW 19:05:27 10° N visible
29 Oct 7.3 19:19:30 10° WNW 19:21:25 12° NNW 19:23:23 10° N visible
30 Oct 7.0 18:36:04 10° W 18:39:10 18° NW 18:42:26 10° N visible
